Time,TemperatureF,DewpointF,PressureIn,WindDirection,WindDirectionDegrees,WindSpeedMPH,WindSpeedGustMPH,Humidity,HourlyPrecipIn,Conditions,Clouds,dailyrainin,SoftwareType,DateUTC
2013-01-30 00:00:00,31.3,31.1,30.06,West,270,1.0,2.0,99,0.00,,,0.05,meteohub,2013-01-30 05:00:00,
2013-01-30 00:03:00,31.3,31.1,30.05,East,90,2.0,2.0,99,0.00,,,0.05,meteohub,2013-01-30 05:03:00,
2013-01-30 00:07:00,31.5,31.3,30.05,East,90,1.0,2.0,99,0.00,,,0.05,meteohub,2013-01-30 05:07:00,
2013-01-30 00:15:00,31.6,31.5,30.05,SE,135,0.0,2.0,99,0.00,,,0.05,meteohub,2013-01-30 05:15:00,
2013-01-30 00:16:00,31.6,31.5,30.05,SE,135,1.0,2.0,99,0.00,,,0.05,meteohub,2013-01-30 05:16:00,
2013-01-30 00:21:00,31.6,31.5,30.05,East,90,1.0,2.0,99,0.00,,,0.05,meteohub,2013-01-30 05:21:00,
2013-01-30 00:26:00,31.8,31.6,30.04,East,90,1.0,2.0,99,0.00,,,0.05,meteohub,2013-01-30 05:26:00,
2013-01-30 00:31:00,32.0,31.8,30.05,East,90,0.0,1.0,99,0.00,,,0.05,meteohub,2013-01-30 05:31:00,
2013-01-30 00:36:00,32.0,31.8,30.04,East,90,1.0,1.0,99,0.00,,,0.05,meteohub,2013-01-30 05:36:00,
2013-01-30 00:41:00,32.0,31.8,30.05,East,90,0.0,1.0,99,0.00,,,0.05,meteohub,2013-01-30 05:41:00,
2013-01-30 00:46:00,32.0,31.8,30.05,NW,315,0.0,1.0,99,0.00,,,0.05,meteohub,2013-01-30 05:46:00,
2013-01-30 00:51:00,32.0,31.8,30.05,East,90,1.0,1.0,99,0.00,,,0.05,meteohub,2013-01-30 05:51:00,
2013-01-30 00:56:00,32.0,31.8,30.04,East,90,0.0,1.0,99,0.00,,,0.05,meteohub,2013-01-30 05:56:00,
2013-01-30 01:01:00,32.0,31.8,30.04,East,90,0.0,1.0,99,0.00,,,0.05,meteohub,2013-01-30 06:01:00,
2013-01-30 01:06:00,32.0,31.8,30.04,East,90,0.0,1.0,99,0.00,,,0.05,meteohub,2013-01-30 06:06:00,
2013-01-30 01:11:00,32.0,31.8,30.03,SE,135,1.0,1.0,99,0.00,,,0.05,meteohub,2013-01-30 06:11:00,
2013-01-30 01:16:00,31.8,31.6,30.03,South,180,1.0,1.0,99,0.00,,,0.05,meteohub,2013-01-30 06:16:00,
2013-01-30 01:21:00,32.0,31.8,30.03,South,180,2.0,2.0,99,0.00,,,0.00,meteohub,2013-01-30 06:21:00,
2013-01-30 01:26:00,32.4,32.2,30.03,SW,225,2.0,2.0,99,0.00,,,0.00,meteohub,2013-01-30 06:26:00,
2013-01-30 01:31:00,32.4,32.2,30.03,SE,135,1.0,1.0,99,0.00,,,0.00,meteohub,2013-01-30 06:31:00,
2013-01-30 01:37:00,32.4,32.2,30.03,South,180,1.0,1.0,99,0.00,,,0.00,meteohub,2013-01-30 06:37:00,
2013-01-30 01:42:00,32.2,32.0,30.03,West,270,0.0,1.0,99,0.00,,,0.00,meteohub,2013-01-30 06:42:00,
2013-01-30 01:47:00,32.2,32.0,30.03,West,270,1.0,1.0,99,0.00,,,0.00,meteohub,2013-01-30 06:47:00,
2013-01-30 01:52:00,32.4,32.2,30.02,East,90,0.0,1.0,99,0.00,,,0.00,meteohub,2013-01-30 06:52:00,
2013-01-30 01:57:00,32.2,32.0,30.02,East,90,1.0,1.0,99,0.00,,,0.00,meteohub,2013-01-30 06:57:00,
2013-01-30 02:02:00,32.4,32.2,30.02,East,90,1.0,1.0,99,0.00,,,0.00,meteohub,2013-01-30 07:02:00,
2013-01-30 02:07:00,32.4,32.2,30.02,SW,225,1.0,1.0,99,0.00,,,0.00,meteohub,2013-01-30 07:07:00,
2013-01-30 02:12:00,32.4,32.2,30.02,South,180,0.0,1.0,99,0.00,,,0.00,meteohub,2013-01-30 07:12:00,
2013-01-30 02:17:00,32.5,32.4,30.02,South,180,0.0,1.0,99,0.00,,,0.00,meteohub,2013-01-30 07:17:00,
2013-01-30 02:23:00,32.9,32.7,30.01,South,180,3.0,3.0,99,0.00,,,0.00,meteohub,2013-01-30 07:23:00,
2013-01-30 02:28:00,33.4,33.3,30.01,South,180,3.0,3.0,99,0.00,,,0.00,meteohub,2013-01-30 07:28:00,
2013-01-30 02:33:00,33.6,33.4,30.01,South,180,4.0,4.0,99,0.00,,,0.00,meteohub,2013-01-30 07:33:00,
2013-01-30 02:38:00,33.8,33.6,30.01,South,180,3.0,3.0,99,0.00,,,0.00,meteohub,2013-01-30 07:38:00,
2013-01-30 02:43:00,33.8,33.6,30.00,SW,225,4.0,4.0,99,0.00,,,0.00,meteohub,2013-01-30 07:43:00,
2013-01-30 02:48:00,34.0,33.8,30.00,SW,225,5.0,5.0,99,0.00,,,0.00,meteohub,2013-01-30 07:48:00,
2013-01-30 02:53:00,34.0,33.8,30.00,South,180,4.0,4.0,99,0.00,,,0.00,meteohub,2013-01-30 07:53:00,
2013-01-30 02:59:00,34.0,33.8,30.00,South,180,3.0,3.0,99,0.00,,,0.00,meteohub,2013-01-30 07:59:00,
2013-01-30 03:04:00,34.0,33.8,29.99,South,180,4.0,4.0,99,0.00,,,0.00,meteohub,2013-01-30 08:04:00,
2013-01-30 03:09:00,34.2,34.0,29.99,SW,225,2.0,2.0,99,0.00,,,0.00,meteohub,2013-01-30 08:09:00,
2013-01-30 03:14:00,34.2,34.0,29.99,South,180,3.0,3.0,99,0.00,,,0.00,meteohub,2013-01-30 08:14:00,
2013-01-30 03:19:00,34.2,34.0,29.99,South,180,4.0,7.0,99,0.00,,,0.00,meteohub,2013-01-30 08:19:00,
2013-01-30 03:24:00,34.2,34.0,29.99,SW,225,4.0,7.0,99,0.00,,,0.00,meteohub,2013-01-30 08:24:00,
2013-01-30 03:29:00,34.2,34.0,29.99,South,180,2.0,7.0,99,0.00,,,0.00,meteohub,2013-01-30 08:29:00,
2013-01-30 03:34:00,34.2,34.0,29.99,South,180,2.0,7.0,99,0.00,,,0.00,meteohub,2013-01-30 08:34:00,
2013-01-30 03:39:00,34.2,34.0,29.99,SSW,203,5.0,7.0,99,0.00,,,0.00,meteohub,2013-01-30 08:39:00,
2013-01-30 03:44:00,34.0,33.8,29.99,SW,225,2.0,7.0,99,0.00,,,0.00,meteohub,2013-01-30 08:44:00,
2013-01-30 03:49:00,34.0,33.8,29.98,SW,225,4.0,7.0,99,0.00,,,0.00,meteohub,2013-01-30 08:49:00,
2013-01-30 03:54:00,34.0,33.8,29.97,South,180,2.0,7.0,99,0.00,,,0.00,meteohub,2013-01-30 08:54:00,
2013-01-30 03:59:00,34.0,33.8,29.97,South,180,3.0,7.0,99,0.00,,,0.00,meteohub,2013-01-30 08:59:00,
2013-01-30 04:04:00,33.8,33.6,29.96,South,180,2.0,7.0,99,0.00,,,0.00,meteohub,2013-01-30 09:04:00,
2013-01-30 04:09:00,33.8,33.6,29.96,South,180,2.0,7.0,99,0.00,,,0.00,meteohub,2013-01-30 09:09:00,
2013-01-30 04:14:00,33.6,33.4,29.95,South,180,2.0,7.0,99,0.00,,,0.00,meteohub,2013-01-30 09:14:00,
2013-01-30 04:19:00,33.8,33.6,29.95,South,180,2.0,4.0,99,0.00,,,0.00,meteohub,2013-01-30 09:19:00,
2013-01-30 04:24:00,33.6,33.4,29.95,South,180,3.0,4.0,99,0.00,,,0.00,meteohub,2013-01-30 09:24:00,
2013-01-30 04:29:00,33.8,33.6,29.94,SE,135,2.0,4.0,99,0.00,,,0.00,meteohub,2013-01-30 09:29:00,
2013-01-30 04:35:00,33.8,33.6,29.94,SW,225,1.0,4.0,99,0.00,,,0.00,meteohub,2013-01-30 09:35:00,
2013-01-30 04:40:00,33.8,33.6,29.94,South,180,2.0,4.0,99,0.00,,,0.00,meteohub,2013-01-30 09:40:00,
2013-01-30 04:45:00,34.0,33.8,29.95,South,180,3.0,4.0,99,0.00,,,0.00,meteohub,2013-01-30 09:45:00,
2013-01-30 04:50:00,34.2,34.0,29.94,SE,135,1.0,4.0,99,0.00,,,0.00,meteohub,2013-01-30 09:50:00,
2013-01-30 04:55:00,34.0,33.8,29.93,South,180,1.0,4.0,99,0.00,,,0.00,meteohub,2013-01-30 09:55:00,
2013-01-30 05:00:00,34.0,33.8,29.94,South,180,1.0,4.0,99,0.00,,,0.00,meteohub,2013-01-30 10:00:00,
2013-01-30 05:05:00,34.0,33.8,29.93,South,180,0.0,4.0,99,0.00,,,0.00,meteohub,2013-01-30 10:05:00,
2013-01-30 05:10:00,34.0,33.8,29.93,SE,135,1.0,4.0,99,0.00,,,0.00,meteohub,2013-01-30 10:10:00,
2013-01-30 05:15:00,34.0,33.8,29.93,SE,135,1.0,4.0,99,0.00,,,0.00,meteohub,2013-01-30 10:15:00,
2013-01-30 05:20:00,34.2,34.0,29.92,SE,135,2.0,4.0,99,0.00,,,0.00,meteohub,2013-01-30 10:20:00,
2013-01-30 05:25:00,34.0,33.8,29.93,SE,135,1.0,4.0,99,0.00,,,0.00,meteohub,2013-01-30 10:25:00,
2013-01-30 05:30:00,34.3,34.2,29.93,SE,135,1.0,2.0,99,0.00,,,0.00,meteohub,2013-01-30 10:30:00,
2013-01-30 05:36:00,33.8,33.6,29.92,SE,135,0.0,2.0,99,0.00,,,0.00,meteohub,2013-01-30 10:36:00,
2013-01-30 05:41:00,34.5,34.3,29.92,South,180,4.0,4.0,99,0.00,,,0.00,meteohub,2013-01-30 10:41:00,
2013-01-30 05:46:00,35.8,35.6,29.91,SSE,158,5.0,5.0,99,0.00,,,0.00,meteohub,2013-01-30 10:46:00,
2013-01-30 05:51:00,36.5,36.3,29.91,South,180,4.0,4.0,99,0.00,,,0.00,meteohub,2013-01-30 10:51:00,
2013-01-30 05:56:00,37.0,36.9,29.91,South,180,4.0,4.0,99,0.00,,,0.00,meteohub,2013-01-30 10:56:00,
2013-01-30 06:01:00,37.6,37.4,29.91,South,180,4.0,4.0,99,0.00,,,0.00,meteohub,2013-01-30 11:01:00,
2013-01-30 06:07:00,37.9,37.8,29.91,South,180,4.0,4.0,99,0.00,,,0.00,meteohub,2013-01-30 11:07:00,
2013-01-30 06:12:00,38.1,37.9,29.91,South,180,6.0,6.0,99,0.00,,,0.00,meteohub,2013-01-30 11:12:00,
2013-01-30 06:17:00,38.5,38.3,29.91,South,180,11.0,11.0,99,0.00,,,0.00,meteohub,2013-01-30 11:17:00,
2013-01-30 06:22:00,38.7,38.5,29.90,SW,225,7.0,7.0,99,0.00,,,0.00,meteohub,2013-01-30 11:22:00,
2013-01-30 06:27:00,39.0,38.8,29.88,South,180,9.0,9.0,99,0.00,,,0.00,meteohub,2013-01-30 11:27:00,
2013-01-30 06:32:00,39.2,39.0,29.89,SW,225,9.0,9.0,99,0.00,,,0.00,meteohub,2013-01-30 11:32:00,
2013-01-30 06:37:00,39.4,39.2,29.89,South,180,11.0,11.0,99,0.00,,,0.00,meteohub,2013-01-30 11:37:00,
2013-01-30 06:42:00,39.4,39.2,29.88,South,180,9.0,9.0,99,0.00,,,0.00,meteohub,2013-01-30 11:42:00,
2013-01-30 06:47:00,39.4,39.2,29.88,South,180,10.0,10.0,99,0.00,,,0.00,meteohub,2013-01-30 11:47:00,
2013-01-30 06:53:00,39.7,39.6,29.89,SSW,203,8.0,8.0,99,0.00,,,0.00,meteohub,2013-01-30 11:53:00,
2013-01-30 06:58:00,39.7,39.6,29.88,SW,225,9.0,9.0,99,0.00,,,0.00,meteohub,2013-01-30 11:58:00,
2013-01-30 07:03:00,39.9,39.7,29.89,South,180,9.0,9.0,99,0.01,,,0.00,meteohub,2013-01-30 12:03:00,
2013-01-30 07:08:00,39.9,39.7,29.88,West,270,7.0,7.0,99,0.01,,,0.00,meteohub,2013-01-30 12:08:00,
2013-01-30 07:13:00,39.9,39.7,29.88,South,180,11.0,11.0,99,0.01,,,0.00,meteohub,2013-01-30 12:13:00,
2013-01-30 07:18:00,40.1,39.9,29.87,SW,225,8.0,8.0,99,0.01,,,0.00,meteohub,2013-01-30 12:18:00,
2013-01-30 07:23:00,40.1,39.9,29.87,South,180,5.0,15.0,99,0.01,,,0.00,meteohub,2013-01-30 12:23:00,
2013-01-30 07:28:00,40.3,40.1,29.86,South,180,8.0,15.0,99,0.01,,,0.00,meteohub,2013-01-30 12:28:00,
2013-01-30 07:33:00,40.5,40.3,29.86,South,180,7.0,15.0,99,0.01,,,0.00,meteohub,2013-01-30 12:33:00,
2013-01-30 07:39:00,40.5,40.3,29.86,SE,135,6.0,15.0,99,0.01,,,0.00,meteohub,2013-01-30 12:39:00,
2013-01-30 07:44:00,40.6,40.5,29.86,SW,225,11.0,15.0,99,0.01,,,0.00,meteohub,2013-01-30 12:44:00,
2013-01-30 07:49:00,40.6,40.5,29.86,South,180,10.0,15.0,99,0.01,,,0.00,meteohub,2013-01-30 12:49:00,
2013-01-30 07:54:00,40.8,40.6,29.86,South,180,7.0,15.0,99,0.01,,,0.00,meteohub,2013-01-30 12:54:00,
2013-01-30 07:59:00,41.0,40.8,29.85,SW,225,10.0,15.0,99,0.01,,,0.00,meteohub,2013-01-30 12:59:00,
2013-01-30 08:04:00,41.0,40.8,29.85,South,180,10.0,15.0,99,0.01,,,0.00,meteohub,2013-01-30 13:04:00,
2013-01-30 08:09:00,41.0,40.8,29.84,SW,225,8.0,15.0,99,0.01,,,0.00,meteohub,2013-01-30 13:09:00,
2013-01-30 08:14:00,41.2,41.0,29.85,South,180,4.0,15.0,99,0.01,,,0.00,meteohub,2013-01-30 13:14:00,
2013-01-30 08:19:00,41.2,41.0,29.84,SW,225,8.0,15.0,99,0.01,,,0.00,meteohub,2013-01-30 13:19:00,
2013-01-30 08:25:00,41.2,41.0,29.84,South,180,4.0,15.0,99,0.01,,,0.00,meteohub,2013-01-30 13:25:00,
2013-01-30 08:30:00,41.4,41.2,29.83,South,180,7.0,15.0,99,0.01,,,0.01,meteohub,2013-01-30 13:30:00,
2013-01-30 08:35:00,41.4,41.2,29.83,South,180,8.0,15.0,99,0.01,,,0.01,meteohub,2013-01-30 13:35:00,
2013-01-30 08:40:00,41.5,41.4,29.83,South,180,11.0,15.0,99,0.01,,,0.01,meteohub,2013-01-30 13:40:00,
2013-01-30 08:45:00,41.7,41.5,29.83,SW,225,10.0,15.0,99,0.01,,,0.01,meteohub,2013-01-30 13:45:00,
2013-01-30 08:50:00,41.7,41.5,29.83,South,180,6.0,15.0,99,0.01,,,0.01,meteohub,2013-01-30 13:50:00,
2013-01-30 08:55:00,41.7,41.5,29.83,SW,225,7.0,15.0,99,0.01,,,0.01,meteohub,2013-01-30 13:55:00,
2013-01-30 09:00:00,41.9,41.7,29.82,SSW,203,10.0,15.0,99,0.01,,,0.01,meteohub,2013-01-30 14:00:00,
2013-01-30 09:06:00,42.1,41.9,29.82,SW,225,11.0,15.0,99,0.00,,,0.01,meteohub,2013-01-30 14:06:00,
2013-01-30 09:11:00,42.3,42.1,29.81,South,180,6.0,15.0,99,0.00,,,0.01,meteohub,2013-01-30 14:11:00,
2013-01-30 09:16:00,42.3,42.1,29.81,South,180,8.0,15.0,99,0.00,,,0.01,meteohub,2013-01-30 14:16:00,
2013-01-30 09:21:00,42.4,42.3,29.81,South,180,8.0,11.0,99,0.00,,,0.01,meteohub,2013-01-30 14:21:00,
2013-01-30 09:26:00,42.8,42.6,29.80,South,180,11.0,11.0,99,0.00,,,0.01,meteohub,2013-01-30 14:26:00,
2013-01-30 09:32:00,42.8,42.6,29.81,South,180,10.0,11.0,99,0.00,,,0.01,meteohub,2013-01-30 14:32:00,
2013-01-30 09:37:00,43.0,42.8,29.80,SSW,203,11.0,11.0,99,0.00,,,0.01,meteohub,2013-01-30 14:37:00,
2013-01-30 09:42:00,43.2,43.0,29.80,South,180,12.0,12.0,99,0.00,,,0.01,meteohub,2013-01-30 14:42:00,
2013-01-30 09:47:00,43.3,43.2,29.79,South,180,11.0,11.0,99,0.00,,,0.01,meteohub,2013-01-30 14:47:00,
2013-01-30 09:52:00,43.5,43.3,29.78,South,180,11.0,11.0,99,0.00,,,0.01,meteohub,2013-01-30 14:52:00,
2013-01-30 09:57:00,43.5,43.3,29.78,SE,135,11.0,11.0,99,0.00,,,0.01,meteohub,2013-01-30 14:57:00,
2013-01-30 10:02:00,43.7,43.5,29.77,South,180,10.0,11.0,99,0.00,,,0.01,meteohub,2013-01-30 15:02:00,
2013-01-30 10:07:00,43.7,43.5,29.77,SE,135,12.0,12.0,99,0.00,,,0.01,meteohub,2013-01-30 15:07:00,
2013-01-30 10:12:00,43.9,43.7,29.77,South,180,8.0,11.0,99,0.00,,,0.01,meteohub,2013-01-30 15:12:00,
2013-01-30 10:17:00,43.9,43.7,29.76,SW,225,16.0,16.0,99,0.00,,,0.01,meteohub,2013-01-30 15:17:00,
2013-01-30 10:22:00,43.9,43.7,29.75,South,180,12.0,12.0,99,0.00,,,0.02,meteohub,2013-01-30 15:22:00,
2013-01-30 10:27:00,44.1,43.9,29.75,East,90,14.0,14.0,99,0.00,,,0.02,meteohub,2013-01-30 15:27:00,
2013-01-30 10:32:00,44.1,43.9,29.75,SSW,203,8.0,11.0,99,0.00,,,0.02,meteohub,2013-01-30 15:32:00,
2013-01-30 10:37:00,44.1,43.9,29.75,South,180,14.0,14.0,99,0.00,,,0.02,meteohub,2013-01-30 15:37:00,
2013-01-30 10:42:00,44.2,44.1,29.75,SE,135,13.0,13.0,99,0.00,,,0.02,meteohub,2013-01-30 15:42:00,
2013-01-30 10:47:00,44.4,44.2,29.74,South,180,8.0,11.0,99,0.00,,,0.02,meteohub,2013-01-30 15:47:00,
2013-01-30 10:52:00,44.4,44.2,29.73,South,180,11.0,11.0,99,0.00,,,0.02,meteohub,2013-01-30 15:52:00,
2013-01-30 10:57:00,44.6,44.4,29.73,SW,225,7.0,11.0,99,0.00,,,0.02,meteohub,2013-01-30 15:57:00,
2013-01-30 11:03:00,44.6,44.4,29.72,SW,225,9.0,11.0,99,0.00,,,0.02,meteohub,2013-01-30 16:03:00,
2013-01-30 11:08:00,44.8,44.6,29.72,South,180,11.0,11.0,99,0.00,,,0.02,meteohub,2013-01-30 16:08:00,
2013-01-30 11:13:00,44.8,44.6,29.71,South,180,9.0,11.0,99,0.00,,,0.02,meteohub,2013-01-30 16:13:00,
2013-01-30 11:18:00,45.0,44.8,29.70,South,180,12.0,15.0,99,0.00,,,0.02,meteohub,2013-01-30 16:18:00,
2013-01-30 11:23:00,45.1,45.0,29.70,South,180,14.0,15.0,99,0.00,,,0.02,meteohub,2013-01-30 16:23:00,
2013-01-30 11:28:00,45.3,45.1,29.69,SE,135,10.0,15.0,99,0.00,,,0.02,meteohub,2013-01-30 16:28:00,
2013-01-30 11:33:00,45.3,45.1,29.68,South,180,11.0,15.0,99,0.00,,,0.02,meteohub,2013-01-30 16:33:00,
2013-01-30 11:38:00,45.5,45.3,29.67,NW,315,8.0,15.0,99,0.00,,,0.02,meteohub,2013-01-30 16:38:00,
2013-01-30 11:43:00,45.5,45.3,29.67,SSE,158,9.0,15.0,99,0.00,,,0.02,meteohub,2013-01-30 16:43:00,
2013-01-30 11:48:00,45.7,45.5,29.67,South,180,14.0,15.0,99,0.00,,,0.02,meteohub,2013-01-30 16:48:00,
2013-01-30 11:54:00,45.7,45.5,29.66,South,180,10.0,15.0,99,0.00,,,0.02,meteohub,2013-01-30 16:54:00,
2013-01-30 11:59:00,45.9,45.7,29.66,SW,225,8.0,15.0,99,0.00,,,0.02,meteohub,2013-01-30 16:59:00,
2013-01-30 12:04:00,46.0,45.9,29.65,SSW,203,13.0,15.0,99,0.00,,,0.02,meteohub,2013-01-30 17:04:00,
2013-01-30 12:09:00,46.2,46.0,29.65,South,180,13.0,15.0,99,0.00,,,0.02,meteohub,2013-01-30 17:09:00,
2013-01-30 12:14:00,46.2,46.0,29.64,South,180,15.0,15.0,99,0.00,,,0.02,meteohub,2013-01-30 17:14:00,
2013-01-30 12:19:00,46.4,46.2,29.64,SSW,203,10.0,15.0,99,0.00,,,0.02,meteohub,2013-01-30 17:19:00,
2013-01-30 12:24:00,46.6,46.4,29.63,WSW,248,14.0,15.0,99,0.00,,,0.02,meteohub,2013-01-30 17:24:00,
2013-01-30 12:29:00,46.8,46.6,29.63,SW,225,8.0,15.0,99,0.00,,,0.02,meteohub,2013-01-30 17:29:00,
2013-01-30 12:34:00,46.8,46.6,29.62,SSW,203,9.0,15.0,99,0.00,,,0.02,meteohub,2013-01-30 17:34:00,
2013-01-30 12:40:00,46.9,46.8,29.62,NNE,23,6.0,15.0,99,0.00,,,0.02,meteohub,2013-01-30 17:40:00,
2013-01-30 12:45:00,46.8,46.6,29.62,SW,225,7.0,15.0,99,0.00,,,0.02,meteohub,2013-01-30 17:45:00,
2013-01-30 12:50:00,46.9,46.8,29.61,South,180,8.0,15.0,99,0.00,,,0.02,meteohub,2013-01-30 17:50:00,
2013-01-30 12:55:00,47.1,46.9,29.61,South,180,8.0,15.0,99,0.00,,,0.02,meteohub,2013-01-30 17:55:00,
2013-01-30 13:00:00,47.1,46.9,29.60,South,180,10.0,15.0,99,0.00,,,0.02,meteohub,2013-01-30 18:00:00,
2013-01-30 13:05:00,47.3,47.1,29.60,South,180,16.0,16.0,99,0.00,,,0.02,meteohub,2013-01-30 18:05:00,
2013-01-30 13:10:00,47.3,47.1,29.60,South,180,11.0,15.0,99,0.00,,,0.02,meteohub,2013-01-30 18:10:00,
2013-01-30 13:15:00,47.3,47.1,29.59,SSW,203,8.0,15.0,99,0.00,,,0.02,meteohub,2013-01-30 18:15:00,
2013-01-30 13:20:00,47.5,47.3,29.59,South,180,16.0,16.0,99,0.00,,,0.02,meteohub,2013-01-30 18:20:00,
2013-01-30 13:25:00,47.5,47.3,29.59,SSW,203,10.0,15.0,99,0.00,,,0.02,meteohub,2013-01-30 18:25:00,
2013-01-30 13:30:00,47.5,47.3,29.58,SW,225,10.0,15.0,99,0.00,,,0.02,meteohub,2013-01-30 18:30:00,
2013-01-30 13:35:00,47.5,47.3,29.58,South,180,8.0,15.0,99,0.00,,,0.02,meteohub,2013-01-30 18:35:00,
2013-01-30 13:40:00,47.3,47.1,29.58,SW,225,8.0,15.0,99,0.00,,,0.02,meteohub,2013-01-30 18:40:00,
2013-01-30 13:46:00,47.3,47.1,29.58,South,180,11.0,15.0,99,0.00,,,0.02,meteohub,2013-01-30 18:46:00,
2013-01-30 13:51:00,47.3,47.1,29.57,South,180,20.0,20.0,99,0.00,,,0.02,meteohub,2013-01-30 18:51:00,
2013-01-30 13:56:00,47.1,46.9,29.57,West,270,9.0,15.0,99,0.00,,,0.02,meteohub,2013-01-30 18:56:00,
2013-01-30 14:01:00,47.1,46.9,29.56,South,180,22.0,22.0,99,0.00,,,0.02,meteohub,2013-01-30 19:01:00,
2013-01-30 14:06:00,47.1,46.9,29.56,SSW,203,12.0,15.0,99,0.00,,,0.02,meteohub,2013-01-30 19:06:00,
2013-01-30 14:11:00,47.1,46.9,29.56,SW,225,11.0,15.0,99,0.00,,,0.02,meteohub,2013-01-30 19:11:00,
2013-01-30 14:17:00,47.1,46.9,29.55,SW,225,6.0,15.0,99,0.00,,,0.02,meteohub,2013-01-30 19:17:00,
2013-01-30 14:22:00,47.1,46.9,29.55,SW,225,7.0,15.0,99,0.00,,,0.02,meteohub,2013-01-30 19:22:00,
2013-01-30 14:27:00,47.1,46.9,29.55,SW,225,4.0,15.0,99,0.00,,,0.02,meteohub,2013-01-30 19:27:00,
2013-01-30 14:32:00,47.5,47.3,29.54,NW,315,7.0,15.0,99,0.00,,,0.02,meteohub,2013-01-30 19:32:00,
2013-01-30 14:37:00,47.5,47.3,29.54,NW,315,8.0,15.0,99,0.00,,,0.02,meteohub,2013-01-30 19:37:00,
2013-01-30 14:42:00,47.5,47.3,29.53,SW,225,8.0,15.0,99,0.00,,,0.02,meteohub,2013-01-30 19:42:00,
2013-01-30 14:47:00,47.8,47.7,29.53,South,180,11.0,15.0,99,0.00,,,0.02,meteohub,2013-01-30 19:47:00,
2013-01-30 14:52:00,48.0,47.8,29.54,SW,225,15.0,15.0,99,0.00,,,0.02,meteohub,2013-01-30 19:52:00,
2013-01-30 14:57:00,48.4,48.2,29.54,West,270,8.0,15.0,99,0.00,,,0.02,meteohub,2013-01-30 19:57:00,
2013-01-30 15:02:00,48.2,48.0,29.54,SW,225,9.0,15.0,99,0.00,,,0.02,meteohub,2013-01-30 20:02:00,
2013-01-30 15:07:00,48.2,48.0,29.53,South,180,10.0,15.0,99,0.00,,,0.02,meteohub,2013-01-30 20:07:00,
2013-01-30 15:13:00,48.0,47.8,29.52,SE,135,11.0,15.0,99,0.00,,,0.02,meteohub,2013-01-30 20:13:00,
2013-01-30 15:18:00,47.8,47.7,29.51,SE,135,8.0,15.0,99,0.00,,,0.02,meteohub,2013-01-30 20:18:00,
2013-01-30 15:23:00,47.8,47.7,29.52,SW,225,8.0,17.0,99,0.00,,,0.02,meteohub,2013-01-30 20:23:00,
2013-01-30 15:28:00,48.2,48.0,29.51,South,180,11.0,17.0,99,0.00,,,0.02,meteohub,2013-01-30 20:28:00,
2013-01-30 15:33:00,48.7,48.6,29.50,SW,225,15.0,17.0,99,0.00,,,0.02,meteohub,2013-01-30 20:33:00,
2013-01-30 15:38:00,49.1,48.9,29.50,South,180,8.0,17.0,99,0.00,,,0.02,meteohub,2013-01-30 20:38:00,
2013-01-30 15:43:00,49.3,49.1,29.49,South,180,9.0,17.0,99,0.00,,,0.02,meteohub,2013-01-30 20:43:00,
2013-01-30 15:48:00,49.5,49.3,29.49,SW,225,11.0,17.0,99,0.00,,,0.02,meteohub,2013-01-30 20:48:00,
2013-01-30 15:53:00,49.8,49.5,29.49,South,180,9.0,17.0,99,0.00,,,0.02,meteohub,2013-01-30 20:53:00,
2013-01-30 15:58:00,50.2,49.8,29.48,SE,135,21.0,21.0,99,0.00,,,0.02,meteohub,2013-01-30 20:58:00,
2013-01-30 16:04:00,50.4,50.0,29.47,South,180,10.0,17.0,99,0.00,,,0.02,meteohub,2013-01-30 21:04:00,
2013-01-30 16:09:00,50.7,50.4,29.47,SW,225,12.0,17.0,99,0.00,,,0.02,meteohub,2013-01-30 21:09:00,
2013-01-30 16:14:00,50.9,50.5,29.47,SE,135,9.0,17.0,99,0.00,,,0.02,meteohub,2013-01-30 21:14:00,
2013-01-30 16:19:00,50.7,50.4,29.47,SW,225,11.0,17.0,99,0.00,,,0.02,meteohub,2013-01-30 21:19:00,
2013-01-30 16:24:00,50.9,50.5,29.47,SW,225,12.0,17.0,99,0.00,,,0.02,meteohub,2013-01-30 21:24:00,
2013-01-30 16:29:00,50.9,50.5,29.47,SE,135,14.0,17.0,99,0.00,,,0.02,meteohub,2013-01-30 21:29:00,
2013-01-30 16:34:00,50.7,50.4,29.47,South,180,11.0,17.0,99,0.00,,,0.02,meteohub,2013-01-30 21:34:00,
2013-01-30 16:39:00,50.9,50.5,29.48,West,270,9.0,17.0,99,0.00,,,0.02,meteohub,2013-01-30 21:39:00,
2013-01-30 16:44:00,50.9,50.5,29.47,South,180,7.0,17.0,99,0.00,,,0.02,meteohub,2013-01-30 21:44:00,
2013-01-30 16:49:00,51.1,50.7,29.46,South,180,9.0,17.0,99,0.00,,,0.02,meteohub,2013-01-30 21:49:00,
2013-01-30 16:54:00,51.6,51.3,29.47,WSW,248,11.0,17.0,99,0.00,,,0.02,meteohub,2013-01-30 21:54:00,
2013-01-30 16:59:00,51.8,51.4,29.46,SW,225,15.0,17.0,99,0.00,,,0.02,meteohub,2013-01-30 21:59:00,
2013-01-30 17:04:00,52.2,51.8,29.46,South,180,7.0,17.0,99,0.00,,,0.02,meteohub,2013-01-30 22:04:00,
2013-01-30 17:10:00,52.5,52.2,29.46,SW,225,14.0,17.0,99,0.00,,,0.02,meteohub,2013-01-30 22:10:00,
2013-01-30 17:15:00,53.1,52.7,29.46,South,180,8.0,17.0,99,0.00,,,0.02,meteohub,2013-01-30 22:15:00,
2013-01-30 17:20:00,53.1,52.7,29.46,SW,225,11.0,17.0,99,0.00,,,0.02,meteohub,2013-01-30 22:20:00,
2013-01-30 17:25:00,53.1,52.7,29.47,SW,225,10.0,17.0,99,0.00,,,0.02,meteohub,2013-01-30 22:25:00,
2013-01-30 17:30:00,52.9,52.5,29.47,South,180,15.0,17.0,99,0.00,,,0.02,meteohub,2013-01-30 22:30:00,
2013-01-30 17:35:00,52.9,52.5,29.47,South,180,15.0,17.0,99,0.00,,,0.02,meteohub,2013-01-30 22:35:00,
2013-01-30 17:40:00,52.5,52.2,29.47,SW,225,15.0,17.0,99,0.00,,,0.02,meteohub,2013-01-30 22:40:00,
2013-01-30 17:45:00,52.5,52.2,29.47,SW,225,15.0,17.0,99,0.00,,,0.02,meteohub,2013-01-30 22:45:00,
2013-01-30 17:50:00,52.3,52.0,29.47,SW,225,23.0,23.0,99,0.00,,,0.02,meteohub,2013-01-30 22:50:00,
2013-01-30 17:56:00,52.0,51.6,29.47,West,270,12.0,17.0,99,0.00,,,0.02,meteohub,2013-01-30 22:56:00,
2013-01-30 18:01:00,51.8,51.4,29.47,SW,225,13.0,17.0,99,0.00,,,0.02,meteohub,2013-01-30 23:01:00,
2013-01-30 18:06:00,51.4,51.1,29.47,SSW,203,11.0,17.0,99,0.00,,,0.02,meteohub,2013-01-30 23:06:00,
2013-01-30 18:11:00,51.4,51.1,29.46,NW,315,12.0,17.0,99,0.00,,,0.02,meteohub,2013-01-30 23:11:00,
2013-01-30 18:16:00,51.3,50.9,29.46,South,180,11.0,17.0,99,0.00,,,0.02,meteohub,2013-01-30 23:16:00,
2013-01-30 18:21:00,51.3,50.9,29.46,NW,315,15.0,17.0,99,0.00,,,0.02,meteohub,2013-01-30 23:21:00,
2013-01-30 18:26:00,51.1,50.7,29.46,South,180,11.0,17.0,99,0.00,,,0.07,meteohub,2013-01-30 23:26:00,
2013-01-30 18:31:00,51.1,50.7,29.46,South,180,12.0,17.0,99,0.00,,,0.07,meteohub,2013-01-30 23:31:00,
2013-01-30 18:36:00,51.1,50.7,29.46,SW,225,8.0,17.0,99,0.00,,,0.07,meteohub,2013-01-30 23:36:00,
2013-01-30 18:41:00,51.1,50.7,29.45,SSW,203,10.0,17.0,99,0.00,,,0.07,meteohub,2013-01-30 23:41:00,
2013-01-30 18:47:00,51.1,50.7,29.45,SW,225,10.0,17.0,99,0.00,,,0.07,meteohub,2013-01-30 23:47:00,
2013-01-30 18:52:00,51.1,50.7,29.45,SW,225,8.0,17.0,99,0.00,,,0.07,meteohub,2013-01-30 23:52:00,
2013-01-30 18:57:00,51.3,50.9,29.46,South,180,8.0,17.0,99,0.00,,,0.07,meteohub,2013-01-30 23:57:00,
2013-01-30 19:02:00,51.4,51.1,29.45,SW,225,6.0,17.0,99,0.00,,,0.07,meteohub,2013-01-31 00:02:00,
2013-01-30 19:07:00,51.4,51.1,29.45,South,180,9.0,17.0,99,-99.99,,,0.07,meteohub,2013-01-31 00:07:00,
2013-01-30 19:12:00,51.4,51.1,29.45,WSW,248,8.0,17.0,99,-99.99,,,0.07,meteohub,2013-01-31 00:12:00,
2013-01-30 19:17:00,51.4,51.1,29.45,SW,225,11.0,17.0,99,-99.99,,,0.07,meteohub,2013-01-31 00:17:00,
2013-01-30 19:22:00,51.6,51.3,29.44,SW,225,10.0,12.0,99,-99.99,,,0.07,meteohub,2013-01-31 00:22:00,
2013-01-30 19:27:00,51.6,51.3,29.45,SW,225,7.0,12.0,99,-99.99,,,0.07,meteohub,2013-01-31 00:27:00,
2013-01-30 19:32:00,52.0,51.6,29.44,SSW,203,12.0,12.0,99,-99.99,,,0.07,meteohub,2013-01-31 00:32:00,
2013-01-30 19:37:00,52.2,51.8,29.44,SW,225,14.0,14.0,99,-99.99,,,0.07,meteohub,2013-01-31 00:37:00,
2013-01-30 19:42:00,52.2,51.8,29.43,SW,225,21.0,21.0,99,-99.99,,,0.07,meteohub,2013-01-31 00:42:00,
2013-01-30 19:48:00,52.0,51.6,29.44,SW,225,10.0,12.0,99,-99.99,,,0.07,meteohub,2013-01-31 00:48:00,
2013-01-30 19:53:00,52.0,51.6,29.43,South,180,17.0,17.0,99,-99.99,,,0.07,meteohub,2013-01-31 00:53:00,
2013-01-30 19:58:00,52.0,51.6,29.43,SW,225,16.0,16.0,99,-99.99,,,0.07,meteohub,2013-01-31 00:58:00,
2013-01-30 20:03:00,51.8,51.4,29.43,South,180,11.0,12.0,99,-99.99,,,0.07,meteohub,2013-01-31 01:03:00,
2013-01-30 20:08:00,51.8,51.4,29.43,SW,225,20.0,20.0,99,-99.99,,,0.07,meteohub,2013-01-31 01:08:00,
2013-01-30 20:13:00,52.0,51.6,29.42,East,90,16.0,16.0,99,-99.99,,,0.07,meteohub,2013-01-31 01:13:00,
2013-01-30 20:18:00,52.2,51.8,29.43,SW,225,24.0,24.0,99,-99.99,,,0.07,meteohub,2013-01-31 01:18:00,
2013-01-30 20:23:00,52.2,51.8,29.42,SW,225,24.0,24.0,99,-99.99,,,0.07,meteohub,2013-01-31 01:23:00,
2013-01-30 20:28:00,52.2,51.8,29.42,South,180,17.0,17.0,99,-99.99,,,0.07,meteohub,2013-01-31 01:28:00,
2013-01-30 20:33:00,52.2,51.8,29.42,SW,225,11.0,12.0,99,-99.99,,,0.07,meteohub,2013-01-31 01:33:00,
2013-01-30 20:38:00,52.5,52.2,29.42,South,180,15.0,15.0,99,-99.99,,,0.07,meteohub,2013-01-31 01:38:00,
2013-01-30 20:43:00,52.5,52.2,29.41,South,180,16.0,16.0,99,-99.99,,,0.13,meteohub,2013-01-31 01:43:00,
2013-01-30 20:48:00,52.5,52.2,29.41,South,180,21.0,21.0,99,-99.99,,,0.13,meteohub,2013-01-31 01:48:00,
2013-01-30 20:53:00,52.7,52.3,29.41,South,180,16.0,16.0,99,-99.99,,,0.13,meteohub,2013-01-31 01:53:00,
2013-01-30 20:58:00,52.7,52.3,29.41,West,270,19.0,19.0,99,-99.99,,,0.13,meteohub,2013-01-31 01:58:00,
2013-01-30 21:04:00,52.7,52.3,29.41,WSW,248,24.0,24.0,99,-99.99,,,0.13,meteohub,2013-01-31 02:04:00,
2013-01-30 21:09:00,52.9,52.5,29.40,South,180,17.0,17.0,99,-99.99,,,0.13,meteohub,2013-01-31 02:09:00,
2013-01-30 21:14:00,52.9,52.5,29.40,South,180,16.0,16.0,99,-99.99,,,0.13,meteohub,2013-01-31 02:14:00,
2013-01-30 21:19:00,52.9,52.5,29.39,South,180,19.0,19.0,99,-99.99,,,0.13,meteohub,2013-01-31 02:19:00,
2013-01-30 21:24:00,52.9,52.5,29.39,SW,225,16.0,16.0,99,0.01,,,0.13,meteohub,2013-01-31 02:24:00,
2013-01-30 21:29:00,52.7,52.3,29.39,SW,225,18.0,18.0,99,0.01,,,0.13,meteohub,2013-01-31 02:29:00,
2013-01-30 21:34:00,52.7,52.3,29.39,SW,225,16.0,16.0,99,0.01,,,0.13,meteohub,2013-01-31 02:34:00,
2013-01-30 21:40:00,52.7,52.3,29.39,South,180,14.0,14.0,99,0.01,,,0.13,meteohub,2013-01-31 02:40:00,
2013-01-30 21:45:00,52.7,52.3,29.38,SW,225,15.0,30.0,99,0.01,,,0.13,meteohub,2013-01-31 02:45:00,
2013-01-30 21:50:00,52.7,52.3,29.37,South,180,12.0,30.0,99,0.01,,,0.13,meteohub,2013-01-31 02:50:00,
2013-01-30 21:55:00,52.7,52.3,29.37,SW,225,14.0,30.0,99,0.01,,,0.13,meteohub,2013-01-31 02:55:00,
2013-01-30 22:00:00,52.7,52.3,29.37,West,270,19.0,30.0,99,0.01,,,0.13,meteohub,2013-01-31 03:00:00,
2013-01-30 22:05:00,52.7,52.3,29.37,South,180,11.0,30.0,99,0.01,,,0.13,meteohub,2013-01-31 03:05:00,
2013-01-30 22:10:00,52.7,52.3,29.38,SW,225,17.0,30.0,99,0.01,,,0.13,meteohub,2013-01-31 03:10:00,
2013-01-30 22:15:00,52.9,52.5,29.37,NW,315,17.0,30.0,99,0.01,,,0.13,meteohub,2013-01-31 03:15:00,
2013-01-30 22:20:00,52.9,52.5,29.37,South,180,16.0,30.0,99,0.01,,,0.13,meteohub,2013-01-31 03:20:00,
2013-01-30 22:26:00,52.9,52.5,29.37,South,180,20.0,30.0,99,0.01,,,0.13,meteohub,2013-01-31 03:26:00,
2013-01-30 22:31:00,52.9,52.5,29.36,South,180,17.0,30.0,99,0.01,,,0.13,meteohub,2013-01-31 03:31:00,
2013-01-30 22:36:00,53.1,52.7,29.36,SW,225,16.0,30.0,99,0.01,,,0.13,meteohub,2013-01-31 03:36:00,
2013-01-30 22:41:00,53.1,52.7,29.36,WNW,293,27.0,30.0,99,0.01,,,0.13,meteohub,2013-01-31 03:41:00,
2013-01-30 22:46:00,52.9,52.5,29.36,SW,225,14.0,30.0,99,0.01,,,0.13,meteohub,2013-01-31 03:46:00,
2013-01-30 22:51:00,52.9,52.5,29.36,South,180,22.0,30.0,99,0.01,,,0.13,meteohub,2013-01-31 03:51:00,
2013-01-30 22:56:00,52.9,52.5,29.36,SW,225,26.0,30.0,99,0.01,,,0.13,meteohub,2013-01-31 03:56:00,
2013-01-30 23:01:00,52.7,52.3,29.36,South,180,21.0,30.0,99,0.01,,,0.13,meteohub,2013-01-31 04:01:00,
2013-01-30 23:06:00,52.9,52.5,29.36,SW,225,14.0,30.0,99,0.01,,,0.13,meteohub,2013-01-31 04:06:00,
2013-01-30 23:11:00,52.7,52.3,29.36,SW,225,14.0,30.0,99,0.01,,,0.13,meteohub,2013-01-31 04:11:00,
2013-01-30 23:16:00,52.7,52.3,29.36,NW,315,14.0,30.0,99,0.01,,,0.13,meteohub,2013-01-31 04:16:00,
2013-01-30 23:21:00,52.7,52.3,29.36,South,180,11.0,30.0,99,0.01,,,0.13,meteohub,2013-01-31 04:21:00,
2013-01-30 23:27:00,52.7,52.3,29.36,South,180,28.0,30.0,99,0.00,,,0.13,meteohub,2013-01-31 04:27:00,
2013-01-30 23:32:00,52.7,52.3,29.35,SSW,203,12.0,30.0,99,0.00,,,0.13,meteohub,2013-01-31 04:32:00,
2013-01-30 23:37:00,52.9,52.5,29.35,SW,225,17.0,30.0,99,0.00,,,0.13,meteohub,2013-01-31 04:37:00,
2013-01-30 23:42:00,52.7,52.3,29.36,South,180,11.0,24.0,99,0.00,,,0.13,meteohub,2013-01-31 04:42:00,
2013-01-30 23:47:00,52.5,52.2,29.36,SW,225,10.0,24.0,99,0.00,,,0.13,meteohub,2013-01-31 04:47:00,
2013-01-30 23:52:00,52.3,52.0,29.35,SW,225,10.0,24.0,99,0.00,,,0.13,meteohub,2013-01-31 04:52:00,
2013-01-30 23:57:00,52.3,52.0,29.34,South,180,8.0,24.0,99,0.00,,,0.13,meteohub,2013-01-31 04:57:00,